Showing default

STPSAT-5, 43762

Orbit data source: Space-Track

STPSAT-5, 43762 is a payload satellite owned by USAF STP (US) in SSO that was launched on Mon, 03 Dec 2018 UTC via an FALCON 9 launch vehicle from the Air Force Western Test Range (AFWTR). Payload-class satellites include a variety of spacecraft equipped with specific instruments for various scientific and technological missions. These include communications satellites like Starlink; space stations such as the ISS; scientific satellites like the Hubble; Earth observation satellites from companies like Planet Labs, Umbra, and HawkEye 360; GPS; miniature CubeSats for education and research; and military/defense satellites.

Loading next visibility...
Identifier
43762, 2018-099E
Orbit
SSO
Country
Flag of USUS
Related business
Manufacturer
SNC Louisville
Mission
Operational Defense Technology
Bus & Motor
SN-50, Unknown motor
Mass
~110 kg wet, ~100 kg dry
Launch date (UTC)
2018-12-03 (8 years ago)
Launch vehicle
FALCON 9
Launch site
Air Force Western Test Range (AFWTR)
Object type
Payload
Rocket body
Debris
Shape & HBR
Oct Cyl + 2 Pan, 1.0 m
Radar Cross Section
0.541 m², Medium (>0.1 m² and < 1m²)

Expand to show TLE details & history
Last TLE update: 8 hours ago

TLE from 8 hours ago
0 STPSAT-5
1 43762U 18099E   26220.11474815  .00002008  00000-0  11380-3 0  9998
2 43762  97.4055 268.4880 0004319 135.1135 225.0447 15.14101085420721
Epoch: 2026-08-08T02:45Z
TLE epoch observation values (Epoch: 2026-08-08T02:45:14.240Z)
Latitude
0.00002°
Longitude
-89.45207°
Altitude
528.899 km
Speed
7.597 km/s
True Right ascension
17h 53m 57s
True Declination
0° 00' 00"
Sunlit
Object was in full shadow at epoch
Visualization orbit readout
Latitude
Unknown
Longitude
Unknown
Altitude
Unknown
Speed
Unknown
Apparent Right ascension
Unknown
Apparent Declination
Unknown
Sunlit
N/A
Visualization observer readout
Local Sidereal Time
00:38:48
Azimuth
Unknown
Elevation
Unknown
Doppler factor
Unknown
Orbital elements
Apogee altitude
523.662 km
Perigee altitude
517.703 km
Semi-major axis
6,898.82 km
Eccentricity
0.00043
Inclination
97.4055°
RAAN
268.488°
Arg. of periapsis
135.1135°
True anomaly
225.00969°
Mean anomaly
225.0447°
Eccentric anomaly
225.02719°
Mean motion
3.78775 °/min
Orbital period
95.04 mins
BSTAR
0.0001138
Loading maneuver chart data...
Computing Atmospheric mass density...
Loading historical data...
Loading historical data...
Loading historical data...
Loading historical data...
Loading historical data...
Loading historical data...
Loading historical data...

Documentation

Showing up to 5 results
|